Regional Weather Roundup
Issued by NWS

Home | Current Version | Previous Version | Text Only | Print | Product List | Glossary Off
Versions: 1 2 3 4 5 6 7 8 9 10 11 12 13 14 15 16 17 18 19 20 21 22 23 24 25 26 27 28 29 30 31 32 33 34 35 36 37 38 39 40 41 42 43 44 45 46 47 48 49 50

000
ASUS43 KDMX 050007
RWRIA

WEATHER ROUNDUP FOR IOWA
NATIONAL WEATHER SERVICE DES MOINES IA
700 PM CDT TUE AUG 04 2015

NOTE: "FAIR" INDICATES FEW OR NO CLOUDS BELOW 12,000 FEET WITH NO
SIGNIFICANT WEATHER AND/OR OBSTRUCTIONS TO VISIBILITY.

* - THESE STATIONS ARE NOT NWS STATIONS...THUS NOT UNDER NWS
QUALITY CONTROL.  THEY ALSO DO NOT REPORT WEATHER SUCH
AS PRECIPITATION OR FOG.

IAZ001>003-012>014-020>022-031>034-043>046-050100-
   NORTHWEST IOWA

CITY           SKY/WX    TMP DP  RH WIND       PRES   REMARKS
CARROLL *      SUNNY     73  63  68 SE6       30.00S
CHEROKEE *     SUNNY     76  66  71 E5        29.99S
DENISON *      SUNNY     73  64  73 SE6       29.98S
LE MARS *      SUNNY     77  64  65 SE5       29.99S
ORANGE CITY *  SUNNY     75  63  64 SE3       30.00R
SHELDON *      SUNNY     75  64  69 SE5       29.99S
SIOUX CITY     PTSUNNY   76  61  59 SE10      29.97S
6HR MIN TEMP:  73; 6HR MAX TEMP:  80;

SPENCER        MOSUNNY   76  59  55 NE7       30.01S
6HR MIN TEMP:  76; 6HR MAX TEMP:  80;

STORM LAKE *   SUNNY     75  64  69 SE6       30.01S
$$

IAZ055>058-069>071-079>083-090>094-050100-
   SOUTHWEST IOWA

CITY           SKY/WX    TMP DP  RH WIND       PRES   REMARKS
ATLANTIC *     MOSUNNY   73  66  78 VRB7G15   29.98S
AUDUBON *      MOSUNNY   73  64  73 E6        30.00F
CLARINDA *     PTSUNNY   75  70  83 NE7       29.98R
COUNCIL BLFS * SUNNY     75  68  78 NE10      29.97S
CRESTON *      MOSUNNY   72  66  83 NE9       30.00F
HARLAN  *      PTSUNNY   73  72  94 E6        30.02S
LAMONI         CLOUDY    74  69  85 NE6       29.99R
6HR MIN TEMP:  71; 6HR MAX TEMP:  78; 6HR PCP: TRACE;

RED OAK *      CLOUDY    73  68  83 E8        29.97R
SHENANDOAH *   CLOUDY    79  73  83 NE7       29.95S HX  82
$$

IAZ047>049-059>061-072>074-084-050100-
   CENTRAL IOWA

CITY           SKY/WX    TMP DP  RH WIND       PRES   REMARKS
AMES           MOSUNNY   75  66  73 S8        30.00R
6HR MIN TEMP:  75; 6HR MAX TEMP:  80;

ANKENY *       SUNNY     75  64  69 CALM      30.00R
CHARITON *     SUNNY     73  66  78 E5        30.01R
DES MOINES     CLOUDY    77  60  55 E7        29.99S
6HR MIN TEMP:  76; 6HR MAX TEMP:  79;

GRINNELL*      MOSUNNY   73  63  68 S6        30.02R
KNOXVILLE *    SUNNY     75  63  64 CALM      30.00R
MARSHALLTOWN   SUNNY     78  60  53 CALM      29.99R
6HR MIN TEMP:  75; 6HR MAX TEMP:  79;

PELLA *        PTSUNNY   76  67  76 CALM      30.02R
PERRY *          N/A     77  66  69 SE3       30.00F
$$

IAZ004>006-015-016-023>025-035-036-050100-
   NORTH CENTRAL IOWA

CITY           SKY/WX    TMP DP  RH WIND       PRES   REMARKS
ALGONA *       SUNNY     75  55  50 S5        30.01S
CLARION *      SUNNY     75  61  60 E5        30.01R
ESTHERVILLE    PTSUNNY   74  56  53 SE3       30.01S
6HR MIN TEMP:  74; 6HR MAX TEMP:  77;

FORT DODGE *   MOSUNNY   75  63  64 E3        30.01R
MASON CITY     PTSUNNY   76  59  55 NE3       30.03R
6HR MIN TEMP:  74; 6HR MAX TEMP:  79;

FOREST CITY *  SUNNY     72  54  53 E3        30.01S
IOWA FALLS *     N/A     76  58  52 NE5       30.02R
$$

IAZ007>011-017>019-026>030-037>042-050>054-066-050100-
   NORTHEAST IOWA

CITY           SKY/WX    TMP DP  RH WIND       PRES   REMARKS
CEDAR RAPIDS   MOSUNNY   76  66  71 SW3       29.98R
6HR MIN TEMP:  76; 6HR MAX TEMP:  80;

CHARLES CITY * SUNNY     73  59  60 CALM      30.01S
CLINTON *      SUNNY     77  63  61 CALM      30.00R
DECORAH *      SUNNY     73  55  53 N5        29.99R
DUBUQUE        PTSUNNY   75  55  49 N7        29.99R
6HR MIN TEMP:  73; 6HR MAX TEMP:  80;

MONTICELLO *   SUNNY     77  57  50 VRB5      29.98R
OELWEIN *      SUNNY     73  61  64 CALM      30.01R
WATERLOO       PTSUNNY   78  56  46 CALM      29.99R
6HR MIN TEMP:  75; 6HR MAX TEMP:  81;

$$

IAZ064-065-067-068-078-050100-
   EAST CENTRAL IOWA

CITY           SKY/WX    TMP DP  RH WIND       PRES   REMARKS
DAVENPORT      MOSUNNY   78  62  57 NW3       29.97R HX  80
6HR MIN TEMP:  78; 6HR MAX TEMP:  81;

IOWA CITY      CLOUDY    77  64  64 S9        29.99R
6HR MIN TEMP:  77; 6HR MAX TEMP:  81;

MT. PLEASANT * CLOUDY    77  60  55 CALM      29.99R
MUSCATINE *    SUNNY     77  64  65 S7        29.98R
QUAD CITIES    MOSUNNY   77  63  61 SW6       29.97R
6HR MIN TEMP:  77; 6HR MAX TEMP:  82;

$$

IAZ062-063-075>077-085>089-095>099-050100-
   SOUTHEAST IOWA

CITY           SKY/WX    TMP DP  RH WIND       PRES   REMARKS
BURLINGTON     PTSUNNY   74  65  73 SW3       29.98R
6HR MIN TEMP:  74; 6HR MAX TEMP:  77;

FAIRFIELD *    MOSUNNY   73  63  68 SW3       30.00R
FORT MADISON * SUNNY     73  64  73 CALM      30.00R
KEOKUK *       SUNNY     75  66  73 CALM      29.98R
OSKALOOSA *      N/A     75  64  67 CALM      30.01R
CENTERVILLE *  SUNNY     72  66  83 NE5       30.02R
OTTUMWA        PTSUNNY   73  66  78 S3        29.99R
6HR MIN TEMP:  72; 6HR MAX TEMP:  77;

WASHINGTON *   SUNNY     75  64  69 S6        30.00R
$$

ABBREVIATIONS USED IN REMARKS
   TC - TEMPERATURES IN CELSIUS
  WCI - WIND CHILL INDEX
   HX - HEAT INDEX
  VSB - VISIBILITY
$$



USA.gov is the U.S. government's official web portal to all federal, state and local government web resources and services.